Latest Weather Observations for Tuggeranong

IDN60801

Issued at 9:35 pm EST Tuesday 2 September 2014 (issued every 30 minutes, with the page automatically refreshed every 10 minutes)

About weather observations | Map of weather stations | Latest weather observations for NSW | Other Formats
Station Details ID: 070339 Name: TUGGERANONG (ISABELLA PLAINS) AWS Lat: -35.42 Lon: 149.09 Height: 586.7 m
Data from the previous 72 hours. | See also: Recent months at Tuggeranong
Date/Time
EST
Temp
°C
App
Temp
°C
Dew
Point
Rel
Hum
%
Delta-T
°C
Wind Press
QNH
hPa
Press
MSL
hPa
Rain
since 9 am
mm
Dir
 
Spd
km/h
Gust
km/h
Spd
kts
Gust
kts
02/09:30pm 6.6 0.9 -0.8 59 2.9 SSW 19 32 10 17 1015.7 - 0.6
02/09:00pm 6.8 1.1 -1.1 57 3.1 S 19 33 10 18 1015.5 1015.4 0.6
02/08:30pm 6.8 1.7 -1.6 55 3.3 S 15 22 8 12 1015.2 - 0.6
02/08:00pm 6.7 2.2 -0.1 62 2.7 S 13 26 7 14 1014.8 1014.6 0.6
02/07:30pm 6.9 1.5 1.0 66 2.4 S 19 30 10 16 1014.3 - 0.6
02/07:00pm 6.6 2.3 1.3 69 2.2 S 13 22 7 12 1013.6 1013.4 0.6
02/06:30pm 6.7 2.1 1.8 71 2.1 S 15 26 8 14 1013.2 - 0.6
02/06:00pm 6.5 1.6 1.8 72 2.0 S 17 26 9 14 1012.9 1012.7 0.6
02/05:30pm 6.4 2.3 2.5 76 1.7 S 13 22 7 12 1012.8 - 0.6
02/05:00pm 6.3 2.0 3.1 80 1.4 S 15 26 8 14 1012.6 1012.4 0.6
02/04:30pm 7.5 0.9 2.0 68 2.3 SSE 26 41 14 22 1012.4 - 0.0
02/04:00pm 9.2 4.1 0.9 56 3.5 SSW 17 26 9 14 1011.6 1011.4 0.0
02/03:30pm 9.3 4.2 1.0 56 3.5 SW 17 33 9 18 1011.3 - 0.0
02/03:00pm 9.8 4.8 1.2 55 3.7 WSW 17 24 9 13 1010.8 1010.5 0.0
02/02:30pm 10.4 4.7 0.7 51 4.1 S 20 32 11 17 1010.1 - 0.0
02/02:00pm 11.5 6.6 -0.6 43 5.1 SSW 15 20 8 11 1009.8 1009.6 0.0
02/01:30pm 11.2 4.7 0.0 46 4.7 S 24 35 13 19 1009.7 - 0.0
02/01:00pm 11.8 5.6 0.0 44 5.0 S 22 37 12 20 1009.6 1009.4 0.0
02/12:30pm 12.0 6.6 1.1 47 4.7 S 19 28 10 15 1009.6 - 0.0
02/12:00pm 11.5 6.1 1.2 49 4.5 S 19 26 10 14 1009.9 1009.7 0.0
02/11:30am 11.2 5.8 1.2 50 4.3 SSW 19 30 10 16 1010.1 - 0.0
02/11:00am 11.0 5.3 0.7 49 4.4 S 20 32 11 17 1010.5 1010.2 0.0
02/10:30am 10.7 5.1 1.0 51 4.2 S 20 30 11 16 1010.6 - 0.0
02/10:00am 11.8 6.5 2.0 51 4.4 SW 19 26 10 14 1010.7 1010.4 0.0
02/09:30am 10.1 4.0 0.7 52 4.0 SSW 22 37 12 20 1010.7 - 0.0
02/09:00am 10.2 6.4 3.9 65 2.9 WSW 13 19 7 10 1010.9 1010.6 0.2
02/08:30am 8.9 4.8 4.1 72 2.2 S 15 20 8 11 1011.0 - 0.2
02/08:00am 7.9 4.8 3.6 74 1.9 SSE 9 13 5 7 1011.0 1010.8 0.2
02/07:30am 7.1 5.1 4.4 83 1.2 SSW 4 7 2 4 1010.6 - 0.2
02/07:00am 7.1 3.8 4.4 83 1.2 S 11 19 6 10 1010.3 1010.0 0.2
02/06:30am 7.9 6.0 4.7 80 1.5 NE 4 7 2 4 1009.7 - 0.0
02/06:00am 8.0 5.1 4.6 79 1.6 NW 9 15 5 8 1009.6 1009.4 0.0
02/05:30am 8.1 4.5 4.9 80 1.5 NW 13 19 7 10 1009.4 - 0.0
02/05:00am 8.2 5.3 4.6 78 1.6 NW 9 17 5 9 1009.0 1008.7 0.0
02/04:30am 8.4 5.2 5.0 79 1.6 WNW 11 17 6 9 1008.6 - 0.0
02/04:00am 8.8 5.1 4.4 74 2.0 WNW 13 22 7 12 1009.0 1008.7 0.0
02/03:30am 9.2 5.5 4.4 72 2.2 WNW 13 20 7 11 1008.7 - 0.0
02/03:00am 9.9 5.8 4.3 68 2.6 NW 15 24 8 13 1009.0 1008.7 0.0
02/02:30am 10.1 5.9 4.0 66 2.8 NNW 15 28 8 15 1008.9 - 0.0
02/02:00am 10.4 7.1 4.3 66 2.8 NW 11 20 6 11 1009.2 1008.9 0.0
02/01:30am 10.7 6.6 4.2 64 3.0 W 15 24 8 13 1009.7 - 0.0
02/01:00am 11.1 7.7 4.1 62 3.2 WNW 11 24 6 13 1010.4 1010.1 0.0
02/12:30am 11.2 8.2 4.2 62 3.2 W 9 19 5 10 1010.4 - 0.0
02/12:00am 11.4 7.3 4.4 62 3.3 W 15 22 8 12 1010.4 1010.1 0.0
 
Date/Time
EST
Temp
°C
App
Temp
°C
Dew
Point
Rel
Hum
%
Delta-T
°C
Wind Press
QNH
hPa
Press
MSL
hPa
Rain
since 9 am
mm
Dir
 
Spd
km/h
Gust
km/h
Spd
kts
Gust
kts
01/11:30pm 11.2 8.6 4.2 62 3.2 W 7 9 4 5 1009.9 - 0.0
01/11:00pm 11.6 8.4 5.0 64 3.1 NNW 11 15 6 8 1009.8 1009.6 0.0
01/10:30pm 11.9 8.4 5.5 65 3.1 N 13 20 7 11 1009.8 - 0.0
01/10:00pm 11.8 9.1 5.4 65 3.1 N 9 17 5 9 1009.9 1009.7 0.0
01/09:30pm 11.1 8.4 5.8 70 2.5 N 9 13 5 7 1009.9 - 0.0
01/09:00pm 9.8 8.8 5.6 75 2.0 CALM 0 0 0 0 1010.1 1009.9 0.0
01/08:30pm 11.5 9.7 5.6 67 2.8 W 4 7 2 4 1010.3 - 0.0
01/08:00pm 12.4 9.9 6.5 67 2.9 W 9 13 5 7 1010.4 1010.1 0.0
01/07:30pm 12.9 11.0 6.5 65 3.2 NNW 6 9 3 5 1010.6 - 0.0
01/07:00pm 13.6 11.5 6.5 62 3.5 N 7 11 4 6 1010.7 1010.4 0.0
01/06:30pm 13.9 11.0 6.5 61 3.7 N 11 19 6 10 1010.7 - 0.0
01/06:00pm 14.5 11.1 5.8 56 4.3 NNW 13 19 7 10 1010.8 1010.5 0.0
01/05:30pm 15.0 11.7 6.3 56 4.3 NNW 13 22 7 12 1010.6 - 0.0
01/05:00pm 15.5 11.2 5.4 51 5.0 NW 17 26 9 14 1010.6 1010.3 0.0
01/04:30pm 16.8 12.6 5.7 48 5.5 NW 17 26 9 14 1010.5 - 0.0
01/04:00pm 16.6 11.9 5.3 47 5.6 NW 19 32 10 17 1010.7 1010.4 0.0
01/03:30pm 18.0 12.3 2.7 36 7.2 W 22 35 12 19 1010.7 - 0.0
01/03:00pm 17.6 12.6 3.5 39 6.8 W 19 33 10 18 1011.0 1010.8 0.0
01/02:30pm 17.5 12.3 3.4 39 6.8 W 20 32 11 17 1011.3 - 0.0
01/02:00pm 17.7 13.5 5.9 46 6.0 NW 17 26 9 14 1011.3 1011.1 0.0
01/01:30pm 17.8 13.7 6.0 46 6.0 NNW 17 28 9 15 1011.8 - 0.0
01/01:00pm 17.3 13.4 5.3 45 6.0 NW 15 19 8 10 1012.6 1012.4 0.0
01/12:30pm 17.0 12.8 5.6 47 5.7 WNW 17 24 9 13 1013.3 - 0.0
01/12:00pm 16.8 12.7 6.3 50 5.3 WNW 17 24 9 13 1014.0 1013.8 0.0
01/11:30am 15.3 12.0 6.3 55 4.5 NNW 13 22 7 12 1014.6 - 0.0
01/11:00am 13.8 10.1 6.4 61 3.7 N 15 22 8 12 1015.1 1014.9 0.0
01/10:30am 11.9 10.2 6.0 67 2.9 W 4 9 2 5 1015.8 - 0.0
01/10:00am 8.8 6.3 4.8 76 1.8 WSW 7 9 4 5 1016.1 1015.9 0.0
01/09:30am 8.5 7.1 5.3 80 1.5 WSW 2 7 1 4 1016.3 - 0.0
01/09:00am 5.6 4.2 3.8 88 0.8 CALM 0 0 0 0 1016.7 1017.4 0.0
01/08:30am 4.7 2.9 3.7 93 0.4 WSW 2 6 1 3 1017.1 - 0.0
01/08:00am 3.6 2.0 2.7 94 0.4 CALM 0 0 0 0 1017.1 1017.8 0.0
01/07:30am 2.9 1.3 2.5 97 0.2 CALM 0 0 0 0 1017.1 - 0.0
01/07:00am 0.2 -1.8 -0.1 98 0.1 CALM 0 0 0 0 1017.2 1017.9 0.0
01/06:30am -1.0 -3.2 -1.4 97 0.1 CALM 0 0 0 0 1017.2 - 0.0
01/06:00am -0.7 -2.8 -1.1 97 0.1 CALM 0 0 0 0 1016.9 1017.6 0.0
01/05:30am -1.0 -3.2 -1.7 95 0.2 CALM 0 0 0 0 1016.9 - 0.0
01/05:00am -0.3 -2.4 -0.9 96 0.2 CALM 0 0 0 0 1016.8 1017.5 0.0
01/04:30am 0.2 -1.8 -0.2 97 0.1 CALM 0 0 0 0 1016.6 - 0.0
01/04:00am 0.1 -2.0 -0.5 96 0.2 CALM 0 0 0 0 1016.5 1017.2 0.0
01/03:30am 0.8 -1.1 0.4 97 0.2 CALM 0 0 0 0 1016.4 - 0.0
01/03:00am 0.9 -1.0 0.3 96 0.2 CALM 0 0 0 0 1016.7 1017.4 0.0
01/02:30am 1.8 -0.3 1.5 98 0.1 E 2 7 1 4 1016.6 - 0.0
01/02:00am 2.0 0.3 1.9 99 0.0 CALM 0 0 0 0 1017.0 1017.7 0.0
01/01:30am 1.7 -0.1 1.0 95 0.3 CALM 0 0 0 0 1017.1 - 0.0
01/01:00am 2.2 0.4 1.5 95 0.3 CALM 0 0 0 0 1017.5 1018.2 0.0
01/12:30am 2.6 0.9 1.7 94 0.4 CALM 0 0 0 0 1017.6 - 0.0
01/12:00am 2.9 1.2 1.9 93 0.4 CALM 0 0 0 0 1017.7 1018.4 0.0
 
Date/Time
EST
Temp
°C
App
Temp
°C
Dew
Point
Rel
Hum
%
Delta-T
°C
Wind Press
QNH
hPa
Press
MSL
hPa
Rain
since 9 am
mm
Dir
 
Spd
km/h
Gust
km/h
Spd
kts
Gust
kts
31/11:30pm 3.5 1.9 2.3 92 0.5 CALM 0 0 0 0 1017.8 - 0.0
31/11:00pm 4.3 2.8 3.1 92 0.5 CALM 0 0 0 0 1017.9 1018.6 0.0
31/10:30pm 4.5 2.9 2.5 87 0.8 CALM 0 0 0 0 1018.1 - 0.0
31/10:00pm 6.0 3.5 3.7 85 1.0 E 6 7 3 4 1018.3 1019.0 0.0
31/09:30pm 6.7 4.6 3.9 82 1.2 ESE 4 7 2 4 1018.3 - 0.0
31/09:00pm 7.2 4.7 3.6 78 1.6 E 6 7 3 4 1018.2 1018.9 0.0
31/08:30pm 8.4 5.8 4.4 76 1.8 E 7 9 4 5 1018.2 - 0.0
31/08:00pm 9.3 6.9 4.3 71 2.3 NE 6 7 3 4 1018.2 1018.9 0.0
31/07:30pm 10.3 8.6 4.0 65 2.9 SE 2 6 1 3 1017.9 - 0.0
31/07:00pm 11.7 8.4 4.4 61 3.4 N 11 19 6 10 1017.8 1018.5 0.0
31/06:30pm 12.5 8.8 4.5 58 3.8 N 13 19 7 10 1017.6 - 0.0
31/06:00pm 13.2 9.6 4.9 57 4.0 N 13 20 7 11 1017.5 1018.2 0.0
31/05:30pm 14.0 10.4 4.9 54 4.4 N 13 20 7 11 1017.3 - 0.0
31/05:00pm 15.0 11.7 4.4 49 5.1 NNW 11 19 6 10 1017.1 1017.8 0.0
31/04:30pm 15.9 11.8 4.6 47 5.5 NNW 15 24 8 13 1017.0 - 0.0
31/04:00pm 16.3 12.1 4.0 44 5.9 N 15 20 8 11 1016.8 1017.5 0.0
31/03:30pm 16.5 12.6 5.2 47 5.6 NNW 15 20 8 11 1017.0 - 0.0
31/03:00pm 16.9 13.5 5.8 48 5.5 NNW 13 22 7 12 1017.1 1017.8 0.0
31/02:30pm 16.8 12.9 5.4 47 5.7 NNE 15 24 8 13 1017.6 - 0.0
31/02:00pm 16.6 12.8 5.9 49 5.3 N 15 22 8 12 1017.9 1018.6 0.0
31/01:30pm 16.3 12.6 6.2 51 5.1 N 15 20 8 11 1018.1 - 0.0
31/01:00pm 15.8 12.7 5.4 50 5.1 NNW 11 17 6 9 1018.5 1019.2 0.0
31/12:30pm 15.0 12.2 6.8 58 4.1 NNE 11 17 6 9 1019.1 - 0.0
31/12:00pm 14.0 11.5 6.6 61 3.7 NNW 9 15 5 8 1019.8 1020.5 0.0
31/11:30am 12.9 10.0 6.3 64 3.2 N 11 17 6 9 1020.4 - 0.0
31/11:00am 11.8 9.0 5.2 64 3.1 N 9 15 5 8 1021.2 1021.9 0.0
31/10:30am 10.2 8.1 5.8 74 2.1 S 6 7 3 4 1021.8 - 0.0
31/10:00am 7.6 5.6 6.1 90 0.7 N 6 11 3 6 1022.1 1022.9 0.0
31/09:30am 5.7 3.9 5.6 99 0.0 WSW 4 9 2 5 1022.2 - 0.0
31/09:00am 4.8 3.2 4.7 99 0.0 WNW 2 7 1 4 1022.3 1023.1 0.0
31/08:30am 4.4 2.8 4.3 99 0.0 W 2 6 1 3 1022.4 - 0.0
31/08:00am 3.2 1.0 3.1 99 0.0 WSW 4 6 2 3 1022.4 1023.2 0.0
31/07:30am 2.7 1.1 2.6 99 0.0 CALM 0 0 0 0 1022.3 - 0.0
31/07:00am 2.5 0.1 2.4 99 0.0 WSW 4 7 2 4 1022.2 1023.0 0.0
31/06:30am 2.1 -0.3 2.0 99 0.0 W 4 6 2 3 1021.8 - 0.0
31/06:00am 1.2 -0.6 1.1 99 0.0 CALM 0 0 0 0 1021.6 1022.3 0.0
31/05:30am 0.4 -1.6 0.0 97 0.2 CALM 0 0 0 0 1021.6 - 0.0
31/05:00am 0.2 -1.8 -0.4 96 0.2 CALM 0 0 0 0 1021.5 1022.2 0.0
31/04:30am 0.6 -1.4 -0.1 95 0.3 CALM 0 0 0 0 1021.6 - 0.0
31/04:00am 0.9 -1.0 0.3 96 0.2 CALM 0 0 0 0 1021.7 1022.4 0.0
31/03:30am 1.5 -0.3 1.1 97 0.2 CALM 0 0 0 0 1021.8 - 0.0
31/03:00am 1.8 0.0 1.1 95 0.3 CALM 0 0 0 0 1021.9 1022.7 0.0
31/02:30am 2.1 0.3 1.2 94 0.4 CALM 0 0 0 0 1022.2 - 0.0
31/02:00am 2.8 1.1 2.1 95 0.3 CALM 0 0 0 0 1022.4 1023.2 0.0
31/01:30am 3.0 1.3 2.0 93 0.4 CALM 0 0 0 0 1022.6 - 0.0
31/01:00am 3.9 2.4 3.2 95 0.3 CALM 0 0 0 0 1022.9 1023.6 0.0
31/12:30am 3.9 2.4 2.9 93 0.4 CALM 0 0 0 0 1023.2 - 0.0
31/12:00am 5.0 3.7 4.0 93 0.4 CALM 0 0 0 0 1023.2 1024.0 0.0
 
Date/Time
EST
Temp
°C
App
Temp
°C
Dew
Point
Rel
Hum
%
Delta-T
°C
Wind Press
QNH
hPa
Press
MSL
hPa
Rain
since 9 am
mm
Dir
 
Spd
km/h
Gust
km/h
Spd
kts
Gust
kts
30/11:30pm 5.5 4.2 4.2 91 0.6 CALM 0 0 0 0 1023.4 - 0.0
30/11:00pm 6.0 4.7 4.0 87 0.9 CALM 0 0 0 0 1023.6 1024.4 0.0
30/10:30pm 7.3 5.1 5.1 86 1.0 E 6 9 3 5 1023.6 - 0.0
30/10:00pm 8.0 6.1 5.1 82 1.3 E 4 7 2 4 1023.7 1024.5 0.0

Other Formats:

Comma delimited format used in spreadsheet applications
http://www.bom.gov.au/fwo/IDN60801/IDN60801.94925.axf

JavaScript Object Notation format (JSON) in row-major order
http://www.bom.gov.au/fwo/IDN60801/IDN60801.94925.json